QPF
0.01 0.02 0.01 0.00 0.01 0.01 0.01 0.00 0.00 0.01 0.01 0.02 0.02 0.02 0.02 0.01 0.01 0.02 0.01 0.01 0.01 0.02 0.02 0.05 0.08 0.07 0.07 0.08 0.09 0.07 0.04 0.03 0.03 0.04 0.05 0.04 0.04 0.05 0.07 0.06 0.05 0.06 0.05 0.05 0.04 0.04 0.04 0.05 0.04
0.01 0.01 0.00 0.00 0.00 0.01 0.01 0.00 0.01 0.01 0.01 0.02 0.02 0.02 0.01 0.01 0.01 0.01 0.01 0.01 0.01 0.01 0.02 0.03 0.06 0.06 0.04 0.05 0.07 0.05 0.03 0.03 0.04 0.05 0.06 0.05 0.05 0.08 0.13 0.13 0.08 0.06 0.05 0.05 0.05 0.05 0.05 0.06 0.05
0.01 0.00 0.00 0.00 0.01 0.00 0.00 0.01 0.01 0.01 0.02 0.02 0.02 0.01 0.02 0.01 0.01 0.01 0.01 0.01 0.01 0.01 0.02 0.03 0.04 0.04 0.05 0.05 0.06 0.04 0.04 0.04 0.06 0.07 0.05 0.05 0.08 0.12 0.10 0.08 0.09 0.07 0.06 0.07 0.08 0.06 0.07 0.07 0.05
0.01 0.00 0.00 0.01 0.01 0.00 0.00 0.01 0.01 0.02 0.02 0.02 0.02 0.01 0.01 0.01 0.01 0.00 0.00 0.00 0.00 0.01 0.01 0.04 0.04 0.04 0.05 0.05 0.04 0.04 0.03 0.04 0.06 0.06 0.06 0.05 0.08 0.13 0.13 0.13 0.11 0.09 0.08 0.08 0.11 0.10 0.08 0.06 0.05
0.01 0.00 0.00 0.01 0.01 0.00 0.00 0.01 0.02 0.03 0.02 0.01 0.02 0.00 0.01 0.02 0.02 0.00 0.00 0.00 0.01 0.02 0.02 0.02 0.03 0.05 0.05 0.05 0.04 0.05 0.02 0.03 0.04 0.03 0.04 0.04 0.08 0.13 0.15 0.15 0.11 0.09 0.07 0.06 0.10 0.13 0.10 0.08 0.06
0.01 0.00 0.01 0.01 0.01 0.00 0.01 0.01 0.01 0.02 0.02 0.01 0.00 0.00 0.01 0.03 0.02 0.01 0.01 0.01 0.01 0.02 0.02 0.02 0.03 0.06 0.06 0.06 0.05 0.06 0.04 0.03 0.03 0.04 0.04 0.06 0.09 0.10 0.09 0.09 0.08 0.07 0.08 0.10 0.10 0.08 0.08 0.08 0.06
0.01 0.00 0.00 0.01 0.01 0.01 0.01 0.01 0.01 0.02 0.01 0.01 0.00 0.00 0.01 0.03 0.03 0.01 0.01 0.01 0.01 0.01 0.01 0.02 0.02 0.04 0.04 0.06 0.07 0.06 0.05 0.03 0.03 0.04 0.06 0.06 0.07 0.07 0.07 0.08 0.09 0.08 0.08 0.07 0.05 0.05 0.07 0.08 0.06
0.00 0.01 0.01 0.01 0.01 0.01 0.00 0.00 0.01 0.02 0.02 0.01 0.00 0.00 0.01 0.02 0.02 0.03 0.01 0.01 0.01 0.01 0.01 0.02 0.02 0.02 0.03 0.06 0.06 0.06 0.06 0.04 0.03 0.04 0.04 0.05 0.06 0.06 0.07 0.07 0.08 0.07 0.05 0.05 0.05 0.06 0.07 0.07 0.06
0.00 0.01 0.01 0.01 0.02 0.01 0.01 0.01 0.01 0.01 0.01 0.01 0.00 0.00 0.00 0.01 0.02 0.03 0.02 0.01 0.01 0.01 0.01 0.02 0.02 0.02 0.02 0.03 0.04 0.06 0.04 0.02 0.01 0.02 0.02 0.02 0.02 0.03 0.04 0.04 0.05 0.06 0.05 0.05 0.05 0.05 0.06 0.04 0.03
0.00 0.01 0.01 0.01 0.02 0.01 0.01 0.01 0.01 0.02 0.02 0.01 0.01 0.00 0.01 0.02 0.02 0.02 0.02 0.02 0.02 0.01 0.02 0.02 0.02 0.01 0.01 0.01 0.01 0.03 0.01 0.01 0.01 0.01 0.01 0.01 0.01 0.02 0.02 0.03 0.04 0.04 0.05 0.04 0.03 0.02 0.02 0.02 0.01
0.00 0.01 0.00 0.01 0.02 0.01 0.01 0.00 0.01 0.02 0.02 0.00 0.01 0.01 0.01 0.02 0.02 0.01 0.01 0.01 0.01 0.01 0.01 0.01 0.02 0.03 0.02 0.01 0.01 0.01 0.01 0.01 0.01 0.00 0.00 0.00 0.01 0.01 0.01 0.02 0.02 0.03 0.03 0.02 0.01 0.01 0.01 0.01 0.01
0.00 0.01 0.01 0.02 0.03 0.02 0.01 0.00 0.01 0.01 0.01 0.00 0.01 0.02 0.01 0.02 0.02 0.01 0.01 0.01 0.02 0.01 0.01 0.01 0.01 0.02 0.02 0.01 0.01 0.00 0.00 0.00 0.01 0.01 0.00 0.01 0.01 0.01 0.01 0.01 0.01 0.02 0.02 0.02 0.01 0.01 0.01 0.02 0.01
0.01 0.01 0.01 0.01 0.02 0.02 0.01 0.01 0.01 0.01 0.01 0.01 0.02 0.03 0.03 0.05 0.05 0.04 0.02 0.02 0.02 0.01 0.01 0.01 0.01 0.01 0.01 0.01 0.02 0.01 0.01 0.02 0.01 0.02 0.01 0.01 0.02 0.02 0.01 0.01 0.01 0.01 0.01 0.01 0.01 0.01 0.00 0.02 0.02
0.01 0.02 0.01 0.01 0.01 0.01 0.01 0.01 0.01 0.02 0.02 0.03 0.03 0.04 0.05 0.06 0.05 0.05 0.05 0.04 0.02 0.01 0.01 0.01 0.01 0.01 0.01 0.01 0.02 0.02 0.02 0.03 0.03 0.02 0.01 0.01 0.01 0.01 0.02 0.02 0.01 0.01 0.01 0.00 0.00 0.00 0.00 0.01 0.02
0.01 0.02 0.02 0.02 0.02 0.01 0.02 0.02 0.01 0.01 0.02 0.03 0.03 0.03 0.04 0.05 0.04 0.03 0.05 0.06 0.04 0.02 0.01 0.01 0.01 0.01 0.01 0.01 0.02 0.02 0.03 0.03 0.02 0.02 0.01 0.01 0.01 0.01 0.01 0.01 0.01 0.01 0.01 0.01 0.00 0.00 0.01 0.01 0.01
0.01 0.02 0.03 0.02 0.02 0.02 0.02 0.02 0.01 0.01 0.01 0.02 0.03 0.03 0.04 0.03 0.02 0.02 0.03 0.06 0.06 0.04 0.03 0.02 0.02 0.02 0.02 0.03 0.03 0.04 0.04 0.03 0.02 0.03 0.02 0.01 0.01 0.01 0.01 0.01 0.01 0.00 0.01 0.01 0.01 0.01 0.01 0.01 0.01
0.02 0.01 0.01 0.02 0.03 0.02 0.03 0.02 0.01 0.01 0.02 0.02 0.03 0.03 0.03 0.01 0.01 0.01 0.02 0.05 0.06 0.05 0.04 0.04 0.04 0.03 0.02 0.03 0.03 0.04 0.04 0.03 0.03 0.03 0.04 0.03 0.02 0.02 0.02 0.01 0.01 0.00 0.01 0.01 0.00 0.01 0.01 0.01 0.02
0.02 0.01 0.01 0.02 0.03 0.02 0.02 0.01 0.01 0.01 0.01 0.02 0.03 0.04 0.03 0.01 0.01 0.01 0.02 0.03 0.03 0.02 0.03 0.03 0.05 0.05 0.04 0.03 0.02 0.02 0.02 0.03 0.03 0.03 0.03 0.03 0.02 0.01 0.01 0.02 0.01 0.00 0.01 0.01 0.01 0.01 0.01 0.01 0.02
0.01 0.01 0.01 0.01 0.01 0.01 0.01 0.01 0.01 0.01 0.01 0.02 0.02 0.03 0.03 0.01 0.01 0.01 0.03 0.04 0.03 0.02 0.02 0.03 0.04 0.03 0.02 0.03 0.03 0.02 0.02 0.02 0.02 0.02 0.02 0.02 0.02 0.01 0.01 0.01 0.01 0.01 0.01 0.01 0.01 0.02 0.03 0.02 0.02
0.01 0.01 0.01 0.00 0.00 0.00 0.00 0.00 0.01 0.01 0.01 0.01 0.01 0.01 0.01 0.01 0.00 0.00 0.01 0.03 0.04 0.03 0.04 0.04 0.04 0.03 0.02 0.02 0.02 0.02 0.02 0.01 0.01 0.01 0.02 0.02 0.02 0.01 0.01 0.02 0.01 0.01 0.01 0.01 0.01 0.02 0.04 0.03 0.03
0.01 0.01 0.01 0.00 0.00 0.01 0.01 0.01 0.00 0.00 0.01 0.01 0.02 0.01 0.00 0.01 0.01 0.00 0.01 0.02 0.04 0.04 0.05 0.06 0.07 0.05 0.03 0.02 0.02 0.02 0.02 0.02 0.01 0.01 0.02 0.02 0.02 0.02 0.02 0.02 0.01 0.01 0.01 0.01 0.01 0.01 0.02 0.03 0.03
0.01 0.01 0.01 0.01 0.01 0.02 0.01 0.02 0.01 0.00 0.00 0.00 0.01 0.01 0.01 0.01 0.01 0.01 0.01 0.03 0.04 0.05 0.06 0.07 0.07 0.05 0.03 0.02 0.02 0.02 0.01 0.01 0.01 0.01 0.01 0.02 0.03 0.03 0.03 0.03 0.02 0.01 0.01 0.01 0.01 0.01 0.02 0.03 0.04
0.01 0.01 0.01 0.01 0.01 0.02 0.01 0.01 0.01 0.01 0.00 0.00 0.00 0.00 0.00 0.00 0.01 0.02 0.02 0.03 0.03 0.04 0.05 0.08 0.07 0.05 0.04 0.03 0.02 0.01 0.02 0.01 0.01 0.01 0.01 0.01 0.02 0.03 0.02 0.02 0.02 0.01 0.01 0.01 0.01 0.02 0.04 0.05 0.03
0.01 0.01 0.01 0.01 0.01 0.02 0.01 0.01 0.02 0.01 0.01 0.01 0.00 0.01 0.00 0.00 0.01 0.01 0.01 0.01 0.02 0.03 0.03 0.05 0.06 0.05 0.04 0.04 0.03 0.02 0.02 0.01 0.01 0.01 0.01 0.00 0.01 0.01 0.01 0.01 0.03 0.03 0.02 0.01 0.01 0.02 0.03 0.06 0.05
0.02 0.02 0.02 0.01 0.01 0.01 0.00 0.01 0.02 0.01 0.01 0.00 0.01 0.01 0.00 0.00 0.00 0.01 0.01 0.01 0.02 0.02 0.03 0.04 0.05 0.04 0.03 0.03 0.03 0.02 0.01 0.01 0.01 0.01 0.01 0.01 0.00 0.01 0.01 0.01 0.03 0.06 0.04 0.03 0.02 0.02 0.02 0.03 0.04
0.01 0.01 0.02 0.01 0.01 0.02 0.01 0.02 0.01 0.01 0.01 0.01 0.01 0.01 0.00 0.00 0.00 0.01 0.01 0.01 0.01 0.01 0.01 0.02 0.03 0.03 0.02 0.02 0.02 0.02 0.02 0.02 0.01 0.02 0.01 0.01 0.01 0.01 0.01 0.01 0.02 0.04 0.04 0.04 0.03 0.03 0.03 0.02 0.03
0.01 0.01 0.01 0.01 0.01 0.01 0.01 0.01 0.01 0.01 0.01 0.02 0.01 0.00 0.00 0.00 0.01 0.01 0.01 0.01 0.02 0.02 0.02 0.02 0.03 0.03 0.03 0.02 0.03 0.02 0.02 0.02 0.01 0.02 0.01 0.00 0.00 0.00 0.00 0.00 0.01 0.02 0.03 0.02 0.02 0.02 0.03 0.03 0.05
0.01 0.01 0.01 0.02 0.02 0.02 0.01 0.01 0.01 0.01 0.01 0.01 0.01 0.01 0.01 0.01 0.01 0.02 0.01 0.01 0.01 0.01 0.02 0.02 0.02 0.02 0.03 0.03 0.03 0.02 0.01 0.01 0.01 0.01 0.01 0.01 0.01 0.00 0.01 0.01 0.01 0.01 0.01 0.02 0.02 0.02 0.03 0.04 0.04
0.01 0.01 0.01 0.02 0.01 0.01 0.01 0.01 0.00 0.01 0.00 0.00 0.00 0.01 0.01 0.00 0.01 0.01 0.01 0.01 0.01 0.01 0.01 0.01 0.02 0.02 0.02 0.03 0.03 0.03 0.02 0.02 0.02 0.02 0.02 0.02 0.02 0.01 0.01 0.01 0.01 0.01 0.01 0.01 0.02 0.02 0.02 0.02 0.02
0.01 0.01 0.01 0.01 0.01 0.01 0.01 0.01 0.00 0.00 0.00 0.00 0.01 0.01 0.01 0.00 0.00 0.01 0.00 0.01 0.01 0.02 0.02 0.02 0.03 0.03 0.03 0.03 0.03 0.04 0.04 0.03 0.02 0.02 0.03 0.02 0.02 0.02 0.02 0.02 0.02 0.01 0.01 0.01 0.01 0.01 0.01 0.01 0.01
MSLP
1011.64 1012.11 1012.64 1013.16 1013.62 1013.95 1014.12 1014.14 1014.05 1013.91 1013.78 1013.74 1013.81 1014.00 1014.28 1014.59 1014.86 1015.01 1015.03 1014.91 1014.68 1014.39 1014.11 1013.89 1013.78 1013.76 1013.81 1013.89 1013.96 1013.97 1013.92 1013.81 1013.67 1013.54 1013.44 1013.40 1013.40 1013.44 1013.49 1013.53 1013.52 1013.48 1013.41 1013.33 1013.26 1013.22 1013.20 1013.21 1013.22
1011.81 1012.36 1012.94 1013.49 1013.93 1014.21 1014.32 1014.27 1014.10 1013.89 1013.72 1013.64 1013.69 1013.86 1014.14 1014.44 1014.71 1014.89 1014.93 1014.85 1014.66 1014.43 1014.21 1014.05 1013.98 1013.99 1014.06 1014.15 1014.21 1014.21 1014.15 1014.03 1013.88 1013.74 1013.63 1013.57 1013.56 1013.59 1013.62 1013.64 1013.63 1013.59 1013.55 1013.50 1013.48 1013.48 1013.51 1013.55 1013.56
1012.11 1012.71 1013.31 1013.84 1014.23 1014.44 1014.48 1014.36 1014.14 1013.89 1013.68 1013.58 1013.61 1013.77 1014.02 1014.30 1014.56 1014.73 1014.79 1014.74 1014.60 1014.43 1014.27 1014.17 1014.15 1014.20 1014.29 1014.38 1014.44 1014.44 1014.37 1014.24 1014.09 1013.94 1013.83 1013.77 1013.75 1013.76 1013.78 1013.80 1013.80 1013.79 1013.77 1013.77 1013.79 1013.84 1013.89 1013.94 1013.96
1012.52 1013.14 1013.72 1014.19 1014.50 1014.64 1014.60 1014.42 1014.15 1013.88 1013.66 1013.55 1013.57 1013.71 1013.93 1014.19 1014.41 1014.57 1014.63 1014.59 1014.50 1014.38 1014.28 1014.24 1014.27 1014.35 1014.47 1014.57 1014.62 1014.62 1014.54 1014.42 1014.27 1014.13 1014.03 1013.96 1013.95 1013.96 1013.99 1014.02 1014.04 1014.07 1014.09 1014.14 1014.20 1014.28 1014.35 1014.40 1014.40
1013.00 1013.60 1014.12 1014.51 1014.72 1014.76 1014.64 1014.41 1014.13 1013.85 1013.64 1013.54 1013.56 1013.68 1013.88 1014.10 1014.29 1014.42 1014.46 1014.44 1014.37 1014.29 1014.25 1014.25 1014.32 1014.43 1014.56 1014.67 1014.73 1014.72 1014.65 1014.53 1014.40 1014.28 1014.19 1014.14 1014.14 1014.18 1014.23 1014.29 1014.35 1014.42 1014.49 1014.58 1014.68 1014.77 1014.85 1014.87 1014.84
1013.48 1014.04 1014.46 1014.74 1014.84 1014.78 1014.60 1014.33 1014.04 1013.78 1013.60 1013.53 1013.56 1013.68 1013.86 1014.04 1014.19 1014.29 1014.31 1014.29 1014.24 1014.19 1014.18 1014.21 1014.31 1014.44 1014.57 1014.68 1014.73 1014.73 1014.67 1014.57 1014.46 1014.37 1014.31 1014.30 1014.33 1014.40 1014.48 1014.58 1014.69 1014.80 1014.93 1015.05 1015.17 1015.27 1015.33 1015.33 1015.26
1013.88 1014.35 1014.67 1014.83 1014.82 1014.68 1014.45 1014.17 1013.89 1013.68 1013.54 1013.51 1013.56 1013.68 1013.84 1014.00 1014.12 1014.18 1014.19 1014.16 1014.11 1014.08 1014.08 1014.14 1014.24 1014.37 1014.50 1014.60 1014.66 1014.67 1014.62 1014.55 1014.48 1014.43 1014.41 1014.44 1014.51 1014.62 1014.75 1014.89 1015.04 1015.20 1015.35 1015.50 1015.64 1015.73 1015.77 1015.74 1015.62
1014.13 1014.51 1014.72 1014.76 1014.66 1014.45 1014.19 1013.92 1013.69 1013.53 1013.45 1013.46 1013.55 1013.69 1013.84 1013.97 1014.06 1014.10 1014.09 1014.05 1014.00 1013.97 1013.99 1014.04 1014.14 1014.26 1014.38 1014.48 1014.54 1014.56 1014.54 1014.51 1014.48 1014.48 1014.51 1014.59 1014.70 1014.85 1015.02 1015.20 1015.39 1015.57 1015.74 1015.91 1016.04 1016.12 1016.14 1016.08 1015.93
1014.21 1014.48 1014.58 1014.53 1014.36 1014.12 1013.86 1013.63 1013.45 1013.36 1013.35 1013.41 1013.53 1013.68 1013.83 1013.95 1014.02 1014.04 1014.02 1013.98 1013.93 1013.90 1013.91 1013.96 1014.05 1014.15 1014.26 1014.36 1014.43 1014.46 1014.48 1014.49 1014.51 1014.56 1014.64 1014.77 1014.93 1015.12 1015.32 1015.53 1015.73 1015.92 1016.10 1016.26 1016.38 1016.45 1016.44 1016.36 1016.21
1014.11 1014.29 1014.30 1014.18 1013.97 1013.73 1013.50 1013.32 1013.21 1013.19 1013.24 1013.36 1013.51 1013.67 1013.82 1013.93 1014.00 1014.01 1013.99 1013.94 1013.90 1013.87 1013.87 1013.91 1013.99 1014.08 1014.18 1014.27 1014.35 1014.41 1014.46 1014.52 1014.60 1014.70 1014.84 1015.01 1015.22 1015.43 1015.66 1015.88 1016.08 1016.27 1016.44 1016.58 1016.68 1016.73 1016.72 1016.64 1016.49
1013.90 1013.99 1013.93 1013.77 1013.55 1013.33 1013.15 1013.04 1013.00 1013.04 1013.15 1013.30 1013.48 1013.65 1013.80 1013.91 1013.98 1014.00 1013.98 1013.95 1013.91 1013.88 1013.88 1013.92 1013.98 1014.06 1014.16 1014.26 1014.35 1014.44 1014.53 1014.63 1014.76 1014.92 1015.11 1015.32 1015.56 1015.80 1016.04 1016.26 1016.47 1016.64 1016.79 1016.91 1016.99 1017.03 1017.01 1016.95 1016.83
1013.63 1013.66 1013.56 1013.37 1013.17 1012.99 1012.86 1012.81 1012.83 1012.93 1013.08 1013.25 1013.44 1013.61 1013.77 1013.88 1013.96 1014.00 1014.00 1013.98 1013.96 1013.94 1013.95 1013.98 1014.03 1014.12 1014.21 1014.32 1014.43 1014.55 1014.68 1014.82 1014.99 1015.19 1015.42 1015.68 1015.95 1016.21 1016.46 1016.69 1016.88 1017.04 1017.17 1017.27 1017.33 1017.36 1017.36 1017.32 1017.25
1013.39 1013.37 1013.24 1013.05 1012.87 1012.73 1012.65 1012.65 1012.72 1012.84 1013.00 1013.18 1013.37 1013.55 1013.71 1013.84 1013.94 1014.00 1014.03 1014.04 1014.04 1014.04 1014.05 1014.08 1014.14 1014.22 1014.33 1014.45 1014.58 1014.72 1014.88 1015.06 1015.27 1015.50 1015.76 1016.05 1016.34 1016.63 1016.89 1017.13 1017.32 1017.47 1017.59 1017.67 1017.72 1017.76 1017.77 1017.77 1017.75
1013.23 1013.17 1013.02 1012.84 1012.68 1012.57 1012.52 1012.54 1012.62 1012.74 1012.90 1013.07 1013.25 1013.44 1013.61 1013.76 1013.89 1014.00 1014.06 1014.10 1014.13 1014.14 1014.17 1014.21 1014.28 1014.37 1014.49 1014.63 1014.78 1014.94 1015.12 1015.32 1015.55 1015.80 1016.08 1016.38 1016.70 1017.01 1017.29 1017.54 1017.75 1017.90 1018.02 1018.10 1018.16 1018.21 1018.24 1018.28 1018.31
1013.15 1013.06 1012.91 1012.74 1012.60 1012.50 1012.45 1012.46 1012.52 1012.61 1012.73 1012.88 1013.06 1013.24 1013.44 1013.64 1013.82 1013.96 1014.08 1014.16 1014.21 1014.25 1014.28 1014.34 1014.41 1014.52 1014.66 1014.82 1014.99 1015.17 1015.37 1015.57 1015.80 1016.06 1016.34 1016.65 1016.98 1017.31 1017.62 1017.90 1018.13 1018.31 1018.44 1018.53 1018.60 1018.67 1018.73 1018.80 1018.88
1013.12 1013.03 1012.87 1012.71 1012.57 1012.46 1012.39 1012.36 1012.36 1012.40 1012.48 1012.59 1012.76 1012.96 1013.20 1013.45 1013.69 1013.90 1014.07 1014.19 1014.27 1014.33 1014.37 1014.44 1014.53 1014.65 1014.81 1015.00 1015.19 1015.39 1015.59 1015.80 1016.01 1016.25 1016.52 1016.83 1017.16 1017.51 1017.85 1018.16 1018.43 1018.64 1018.80 1018.92 1019.02 1019.10 1019.19 1019.30 1019.41
1013.10 1013.00 1012.86 1012.70 1012.56 1012.42 1012.31 1012.21 1012.13 1012.09 1012.10 1012.19 1012.34 1012.57 1012.86 1013.18 1013.50 1013.79 1014.02 1014.19 1014.30 1014.37 1014.43 1014.50 1014.60 1014.75 1014.94 1015.15 1015.37 1015.59 1015.80 1015.99 1016.19 1016.40 1016.64 1016.93 1017.25 1017.61 1017.97 1018.32 1018.63 1018.89 1019.09 1019.24 1019.37 1019.47 1019.58 1019.70 1019.84
1013.00 1012.92 1012.80 1012.66 1012.51 1012.34 1012.16 1011.98 1011.81 1011.68 1011.62 1011.67 1011.82 1012.09 1012.45 1012.86 1013.27 1013.64 1013.93 1014.15 1014.28 1014.36 1014.43 1014.50 1014.63 1014.80 1015.02 1015.27 1015.53 1015.77 1015.98 1016.17 1016.34 1016.52 1016.73 1016.98 1017.28 1017.64 1018.01 1018.39 1018.74 1019.04 1019.29 1019.48 1019.62 1019.75 1019.87 1020.00 1020.15
1012.78 1012.73 1012.66 1012.55 1012.40 1012.20 1011.96 1011.68 1011.41 1011.19 1011.06 1011.07 1011.23 1011.54 1011.97 1012.48 1012.98 1013.44 1013.80 1014.06 1014.22 1014.31 1014.38 1014.46 1014.60 1014.80 1015.06 1015.35 1015.65 1015.92 1016.16 1016.34 1016.49 1016.64 1016.80 1017.02 1017.29 1017.63 1018.01 1018.40 1018.78 1019.12 1019.40 1019.62 1019.79 1019.92 1020.05 1020.19 1020.34
1012.42 1012.43 1012.42 1012.36 1012.23 1012.01 1011.71 1011.35 1010.97 1010.65 1010.45 1010.42 1010.59 1010.95 1011.46 1012.06 1012.66 1013.21 1013.64 1013.94 1014.12 1014.22 1014.28 1014.37 1014.52 1014.75 1015.04 1015.39 1015.74 1016.05 1016.32 1016.51 1016.65 1016.77 1016.90 1017.08 1017.31 1017.62 1017.99 1018.39 1018.79 1019.15 1019.45 1019.69 1019.87 1020.01 1020.13 1020.26 1020.41
1011.94 1012.04 1012.11 1012.12 1012.02 1011.79 1011.44 1011.00 1010.53 1010.12 1009.85 1009.79 1009.96 1010.36 1010.94 1011.63 1012.32 1012.95 1013.44 1013.79 1013.99 1014.09 1014.15 1014.24 1014.39 1014.65 1014.98 1015.37 1015.78 1016.15 1016.45 1016.67 1016.82 1016.92 1017.03 1017.16 1017.37 1017.65 1017.99 1018.38 1018.78 1019.15 1019.46 1019.70 1019.88 1020.02 1020.13 1020.24 1020.38
1011.40 1011.61 1011.78 1011.87 1011.82 1011.59 1011.20 1010.69 1010.13 1009.64 1009.30 1009.20 1009.37 1009.80 1010.44 1011.20 1011.97 1012.67 1013.22 1013.60 1013.82 1013.93 1013.99 1014.07 1014.24 1014.50 1014.87 1015.31 1015.77 1016.19 1016.54 1016.80 1016.96 1017.07 1017.16 1017.28 1017.45 1017.70 1018.02 1018.39 1018.77 1019.13 1019.44 1019.68 1019.85 1019.98 1020.07 1020.16 1020.28
1010.90 1011.21 1011.49 1011.66 1011.65 1011.43 1011.01 1010.44 1009.81 1009.23 1008.83 1008.69 1008.84 1009.29 1009.96 1010.78 1011.62 1012.38 1012.98 1013.39 1013.64 1013.75 1013.81 1013.89 1014.05 1014.33 1014.72 1015.19 1015.69 1016.16 1016.56 1016.86 1017.06 1017.18 1017.28 1017.38 1017.54 1017.76 1018.06 1018.40 1018.77 1019.11 1019.41 1019.63 1019.79 1019.90 1019.97 1020.04 1020.13
1010.50 1010.90 1011.27 1011.51 1011.54 1011.33 1010.88 1010.26 1009.56 1008.91 1008.45 1008.26 1008.39 1008.83 1009.53 1010.37 1011.26 1012.06 1012.71 1013.16 1013.42 1013.55 1013.61 1013.69 1013.85 1014.13 1014.53 1015.02 1015.55 1016.05 1016.49 1016.83 1017.07 1017.22 1017.33 1017.45 1017.60 1017.81 1018.08 1018.41 1018.75 1019.08 1019.35 1019.56 1019.71 1019.79 1019.85 1019.90 1019.97
1010.22 1010.71 1011.15 1011.43 1011.49 1011.27 1010.80 1010.12 1009.37 1008.67 1008.15 1007.91 1008.01 1008.43 1009.13 1009.99 1010.89 1011.73 1012.41 1012.89 1013.19 1013.34 1013.41 1013.50 1013.66 1013.93 1014.32 1014.81 1015.35 1015.87 1016.34 1016.71 1016.98 1017.16 1017.30 1017.44 1017.59 1017.80 1018.07 1018.38 1018.71 1019.02 1019.28 1019.48 1019.61 1019.68 1019.72 1019.76 1019.81
1010.07 1010.61 1011.08 1011.39 1011.45 1011.21 1010.71 1010.00 1009.21 1008.46 1007.90 1007.62 1007.69 1008.08 1008.76 1009.61 1010.52 1011.37 1012.08 1012.60 1012.93 1013.11 1013.21 1013.31 1013.47 1013.74 1014.12 1014.59 1015.12 1015.64 1016.11 1016.50 1016.80 1017.01 1017.18 1017.34 1017.52 1017.74 1018.00 1018.31 1018.63 1018.93 1019.19 1019.38 1019.51 1019.58 1019.62 1019.64 1019.69
1009.98 1010.55 1011.03 1011.32 1011.36 1011.10 1010.58 1009.85 1009.03 1008.26 1007.68 1007.37 1007.40 1007.77 1008.41 1009.24 1010.14 1010.99 1011.72 1012.26 1012.63 1012.86 1013.00 1013.12 1013.30 1013.56 1013.93 1014.38 1014.88 1015.38 1015.84 1016.23 1016.55 1016.79 1016.98 1017.17 1017.37 1017.61 1017.89 1018.20 1018.52 1018.82 1019.08 1019.28 1019.41 1019.49 1019.54 1019.57 1019.61
1009.89 1010.45 1010.90 1011.16 1011.16 1010.88 1010.34 1009.61 1008.80 1008.04 1007.46 1007.14 1007.15 1007.48 1008.09 1008.88 1009.74 1010.59 1011.32 1011.89 1012.31 1012.58 1012.77 1012.94 1013.14 1013.41 1013.77 1014.20 1014.66 1015.13 1015.57 1015.95 1016.26 1016.52 1016.74 1016.95 1017.18 1017.44 1017.73 1018.06 1018.39 1018.70 1018.97 1019.18 1019.33 1019.43 1019.49 1019.54 1019.59
1009.71 1010.23 1010.63 1010.84 1010.80 1010.50 1009.96 1009.25 1008.48 1007.76 1007.21 1006.91 1006.92 1007.22 1007.78 1008.52 1009.34 1010.16 1010.88 1011.48 1011.93 1012.27 1012.52 1012.74 1012.98 1013.28 1013.63 1014.04 1014.48 1014.92 1015.32 1015.68 1015.99 1016.25 1016.48 1016.71 1016.96 1017.25 1017.56 1017.90 1018.24 1018.57 1018.85 1019.08 1019.26 1019.38 1019.47 1019.54 1019.61
1009.38 1009.86 1010.19 1010.34 1010.25 1009.94 1009.42 1008.76 1008.05 1007.41 1006.92 1006.67 1006.68 1006.97 1007.48 1008.17 1008.93 1009.71 1010.41 1011.02 1011.51 1011.90 1012.22 1012.51 1012.80 1013.13 1013.50 1013.90 1014.32 1014.73 1015.11 1015.45 1015.74 1016.00 1016.25 1016.50 1016.77 1017.07 1017.40 1017.75 1018.10 1018.44 1018.73 1018.98 1019.18 1019.33 1019.45 1019.54 1019.63
Thickness
5796 5799 5799 5791 5779 5769 5758 5760 5767 5764 5765 5770 5772 5770 5765 5760 5756 5748 5759 5767 5767 5766 5765 5763 5761 5761 5761 5761 5760 5760 5760 5760 5760 5759 5759 5758 5758 5757 5757 5756 5756 5756 5756 5755 5755 5755 5756 5756 5756
5799 5798 5793 5784 5770 5757 5752 5762 5762 5764 5767 5771 5770 5768 5764 5759 5761 5760 5761 5763 5764 5764 5762 5761 5758 5758 5758 5757 5757 5757 5757 5757 5757 5756 5756 5755 5754 5754 5754 5754 5753 5753 5752 5752 5752 5752 5752 5752 5752
5797 5796 5785 5775 5763 5757 5753 5762 5764 5766 5770 5768 5764 5765 5761 5755 5759 5760 5761 5762 5762 5761 5759 5757 5756 5755 5755 5755 5755 5755 5754 5754 5753 5753 5752 5752 5751 5752 5753 5751 5750 5749 5749 5748 5748 5748 5748 5748 5748
5794 5787 5780 5768 5754 5758 5762 5764 5766 5764 5764 5766 5764 5757 5758 5759 5760 5761 5761 5760 5760 5758 5757 5754 5752 5752 5752 5752 5752 5751 5750 5750 5750 5750 5749 5748 5748 5749 5749 5747 5746 5745 5745 5744 5744 5744 5744 5744 5745
5791 5779 5765 5756 5753 5759 5765 5768 5768 5763 5760 5761 5761 5753 5751 5757 5760 5760 5758 5758 5757 5756 5754 5752 5749 5749 5749 5748 5748 5748 5747 5746 5746 5746 5745 5744 5744 5744 5743 5742 5741 5741 5740 5740 5740 5740 5740 5740 5741
5778 5774 5758 5749 5749 5756 5762 5766 5765 5760 5758 5758 5757 5752 5748 5755 5755 5755 5755 5754 5754 5753 5751 5749 5746 5745 5745 5744 5744 5743 5743 5742 5742 5741 5740 5740 5739 5739 5738 5737 5737 5736 5736 5736 5736 5736 5736 5736 5736
5771 5764 5754 5751 5747 5750 5757 5764 5761 5757 5754 5755 5758 5750 5747 5750 5752 5753 5753 5752 5751 5750 5749 5748 5746 5743 5741 5740 5740 5739 5738 5737 5737 5736 5736 5735 5734 5734 5733 5732 5732 5732 5731 5732 5732 5732 5732 5732 5732
5775 5764 5751 5750 5746 5746 5757 5760 5760 5757 5753 5758 5758 5748 5744 5749 5751 5751 5750 5749 5748 5747 5746 5745 5744 5742 5741 5738 5735 5734 5734 5733 5732 5732 5731 5731 5731 5730 5729 5729 5727 5727 5727 5727 5727 5727 5727 5727 5727
5775 5757 5746 5747 5746 5748 5755 5754 5756 5760 5755 5753 5754 5753 5752 5752 5749 5746 5744 5744 5743 5743 5743 5742 5741 5739 5738 5736 5733 5732 5730 5729 5729 5728 5727 5728 5729 5728 5726 5724 5723 5722 5722 5722 5722 5722 5722 5723 5723
5765 5749 5746 5753 5756 5753 5753 5752 5753 5751 5747 5745 5746 5748 5749 5747 5745 5742 5740 5739 5738 5738 5740 5740 5738 5736 5735 5733 5731 5730 5729 5727 5727 5726 5725 5726 5725 5724 5722 5718 5718 5718 5717 5717 5717 5718 5719 5721 5722
5759 5748 5749 5753 5756 5755 5751 5750 5752 5747 5740 5744 5743 5743 5743 5742 5740 5738 5738 5737 5736 5736 5735 5736 5735 5733 5731 5730 5728 5726 5725 5724 5723 5723 5721 5721 5720 5720 5719 5717 5716 5715 5715 5716 5715 5717 5717 5718 5717
5753 5750 5752 5752 5753 5751 5749 5748 5745 5744 5743 5749 5748 5745 5741 5738 5736 5736 5735 5734 5734 5732 5731 5732 5731 5730 5729 5727 5725 5723 5722 5721 5720 5718 5718 5718 5717 5716 5715 5714 5712 5712 5712 5712 5712 5712 5713 5714 5715
5748 5746 5749 5751 5750 5749 5747 5743 5741 5739 5744 5746 5744 5741 5738 5736 5735 5735 5735 5733 5732 5729 5728 5728 5727 5726 5725 5723 5720 5719 5718 5717 5716 5713 5714 5713 5713 5713 5711 5710 5708 5709 5708 5709 5709 5710 5709 5709 5710
5745 5744 5744 5745 5745 5744 5739 5738 5736 5735 5740 5739 5737 5735 5735 5733 5733 5732 5731 5729 5729 5727 5727 5726 5724 5723 5721 5719 5717 5715 5713 5710 5710 5709 5710 5709 5708 5708 5707 5706 5705 5705 5705 5705 5705 5705 5704 5704 5704
5745 5737 5736 5739 5740 5739 5736 5727 5729 5736 5737 5734 5733 5733 5731 5731 5730 5729 5729 5727 5727 5727 5725 5723 5721 5719 5717 5715 5713 5711 5708 5708 5706 5705 5705 5705 5704 5704 5703 5703 5702 5701 5701 5702 5701 5701 5700 5700 5699
5738 5731 5723 5730 5734 5734 5728 5715 5728 5735 5732 5729 5729 5729 5727 5727 5728 5728 5728 5727 5727 5725 5723 5720 5718 5715 5713 5711 5708 5707 5705 5703 5702 5700 5700 5701 5700 5700 5699 5699 5698 5698 5697 5697 5696 5697 5696 5696 5695
5727 5720 5718 5722 5730 5730 5724 5716 5725 5730 5728 5725 5726 5726 5725 5724 5725 5726 5726 5725 5724 5723 5721 5718 5716 5712 5710 5707 5705 5703 5702 5700 5699 5697 5697 5696 5696 5696 5696 5695 5694 5694 5693 5693 5693 5692 5693 5691 5690
5716 5718 5716 5716 5724 5723 5718 5716 5722 5726 5724 5724 5725 5724 5724 5723 5723 5725 5724 5723 5722 5720 5718 5716 5713 5710 5707 5704 5703 5700 5699 5698 5696 5695 5694 5693 5692 5692 5692 5691 5691 5691 5690 5689 5688 5687 5687 5686 5686
5721 5715 5712 5716 5722 5717 5715 5715 5719 5723 5722 5721 5722 5722 5722 5723 5725 5725 5723 5721 5719 5717 5715 5713 5710 5707 5704 5701 5699 5697 5695 5695 5694 5692 5691 5690 5689 5689 5688 5688 5688 5687 5686 5685 5685 5684 5683 5683 5684
5715 5709 5709 5713 5719 5714 5712 5713 5719 5721 5719 5721 5721 5721 5721 5722 5723 5722 5721 5718 5716 5714 5713 5711 5708 5705 5702 5700 5698 5696 5694 5693 5692 5690 5689 5687 5686 5685 5685 5686 5685 5683 5682 5681 5681 5680 5680 5680 5680
5710 5708 5707 5706 5710 5713 5709 5708 5715 5719 5720 5719 5720 5720 5721 5720 5720 5720 5718 5716 5714 5712 5710 5708 5706 5704 5701 5698 5696 5693 5690 5689 5688 5687 5686 5685 5684 5683 5682 5683 5683 5681 5680 5678 5677 5677 5676 5675 5676
5703 5712 5709 5705 5702 5701 5704 5696 5711 5715 5714 5715 5716 5717 5717 5717 5719 5718 5716 5714 5712 5710 5709 5706 5704 5702 5699 5696 5693 5691 5688 5686 5686 5686 5684 5683 5682 5681 5680 5680 5679 5679 5678 5676 5675 5675 5674 5672 5672
5707 5711 5707 5705 5702 5699 5703 5697 5707 5712 5707 5710 5713 5714 5715 5716 5715 5714 5714 5712 5711 5709 5707 5705 5702 5699 5697 5695 5691 5689 5688 5687 5686 5684 5682 5681 5680 5679 5678 5677 5677 5676 5676 5675 5674 5673 5672 5671 5670
5708 5704 5703 5703 5700 5688 5698 5695 5697 5707 5706 5709 5711 5712 5712 5713 5713 5712 5711 5710 5708 5706 5704 5702 5699 5696 5695 5692 5690 5688 5686 5684 5682 5680 5679 5679 5679 5678 5677 5676 5675 5675 5674 5674 5672 5672 5670 5669 5668
5703 5695 5685 5683 5683 5687 5697 5692 5695 5705 5707 5707 5706 5708 5709 5709 5709 5707 5706 5705 5703 5702 5700 5699 5696 5693 5692 5690 5689 5688 5686 5683 5681 5680 5679 5678 5677 5676 5676 5675 5674 5674 5673 5672 5671 5670 5668 5667 5666
5699 5696 5681 5673 5676 5685 5690 5688 5697 5703 5704 5705 5705 5704 5703 5704 5704 5702 5702 5701 5700 5698 5697 5696 5693 5691 5690 5688 5687 5686 5685 5682 5681 5679 5678 5677 5676 5676 5675 5673 5673 5672 5671 5670 5669 5668 5667 5666 5665
5694 5693 5697 5687 5684 5678 5686 5692 5696 5700 5698 5699 5698 5697 5696 5698 5698 5698 5698 5697 5696 5695 5694 5692 5690 5688 5686 5686 5684 5683 5682 5680 5679 5678 5677 5676 5676 5674 5673 5672 5671 5670 5669 5668 5667 5665 5665 5664 5663
5697 5695 5687 5679 5669 5667 5677 5684 5687 5689 5689 5691 5691 5690 5691 5692 5692 5692 5692 5692 5691 5691 5690 5689 5687 5685 5684 5683 5681 5679 5678 5677 5676 5675 5674 5674 5674 5672 5671 5670 5669 5668 5667 5666 5665 5663 5662 5662 5660
5687 5685 5684 5682 5679 5670 5668 5678 5692 5689 5688 5687 5687 5686 5686 5686 5686 5686 5686 5687 5686 5686 5685 5684 5683 5681 5680 5680 5678 5677 5676 5675 5674 5672 5671 5671 5670 5669 5668 5668 5667 5666 5665 5664 5662 5661 5660 5659 5658
5688 5686 5683 5672 5672 5673 5669 5674 5690 5688 5687 5684 5682 5681 5681 5681 5681 5681 5681 5680 5680 5679 5679 5679 5678 5677 5676 5676 5675 5674 5673 5671 5670 5669 5669 5668 5667 5666 5666 5665 5664 5663 5662 5661 5660 5659 5657 5656 5655